Year,Month,Day,Hour,Minute,Value (Times are PST for temperature in C)
2020,04,14,00,00,10.90
2020,04,14,00,01,10.90
2020,04,14,00,02,10.90
2020,04,14,00,03,10.90
2020,04,14,00,04,10.80
2020,04,14,00,05,10.80
2020,04,14,00,06,10.80
2020,04,14,00,07,10.80
2020,04,14,00,08,10.70
2020,04,14,00,09,10.70
2020,04,14,00,10,10.70
2020,04,14,00,11,10.70
2020,04,14,00,12,10.70
2020,04,14,00,13,10.70
2020,04,14,00,14,10.70
2020,04,14,00,15,10.70
2020,04,14,00,16,10.60
2020,04,14,00,17,10.60
2020,04,14,00,18,10.60
2020,04,14,00,19,10.60
2020,04,14,00,20,10.60
2020,04,14,00,21,10.60
2020,04,14,00,22,10.60
2020,04,14,00,23,10.70
2020,04,14,00,24,10.60
2020,04,14,00,25,10.60
2020,04,14,00,26,10.60
2020,04,14,00,27,10.60
2020,04,14,00,28,10.60
2020,04,14,00,29,10.60
2020,04,14,00,30,10.60
2020,04,14,00,31,10.60
2020,04,14,00,32,10.60
2020,04,14,00,33,10.60
2020,04,14,00,34,10.60
2020,04,14,00,35,10.70
2020,04,14,00,36,10.60
2020,04,14,00,37,10.60
2020,04,14,00,38,10.60
2020,04,14,00,39,10.60
2020,04,14,00,40,10.50
2020,04,14,00,41,10.50
2020,04,14,00,42,10.50
2020,04,14,00,43,10.40
2020,04,14,00,44,10.40
2020,04,14,00,45,10.40
2020,04,14,00,46,10.40
2020,04,14,00,47,10.40
2020,04,14,00,48,10.30
2020,04,14,00,49,10.30
2020,04,14,00,50,10.30
2020,04,14,00,51,10.30
2020,04,14,00,52,10.30
2020,04,14,00,53,10.20
2020,04,14,00,54,10.20
2020,04,14,00,55,10.20
2020,04,14,00,56,10.20
2020,04,14,00,57,10.20
2020,04,14,00,58,10.10
2020,04,14,00,59,10.10
2020,04,14,01,00,10.00
2020,04,14,01,01,10.00
2020,04,14,01,02,10.00
2020,04,14,01,03,10.00
2020,04,14,01,04,10.10
2020,04,14,01,05,10.10
2020,04,14,01,06,10.10
2020,04,14,01,07,10.10
2020,04,14,01,08,10.20
2020,04,14,01,09,10.20
2020,04,14,01,10,10.20
2020,04,14,01,11,10.20
2020,04,14,01,12,10.20
2020,04,14,01,13,10.20
2020,04,14,01,14,10.20
2020,04,14,01,15,10.20
2020,04,14,01,16,10.20
2020,04,14,01,17,10.30
2020,04,14,01,18,10.30
2020,04,14,01,19,10.30
2020,04,14,01,20,10.30
2020,04,14,01,21,10.30
2020,04,14,01,22,10.40
2020,04,14,01,23,10.40
2020,04,14,01,24,10.40
2020,04,14,01,25,10.40
2020,04,14,01,26,10.40
2020,04,14,01,27,10.50
2020,04,14,01,28,10.50
2020,04,14,01,29,10.50
2020,04,14,01,30,10.50
2020,04,14,01,31,10.50
2020,04,14,01,32,10.50
2020,04,14,01,33,10.50
2020,04,14,01,34,10.40
2020,04,14,01,35,10.40
2020,04,14,01,36,10.40
2020,04,14,01,37,10.40
2020,04,14,01,38,10.30
2020,04,14,01,39,10.30
2020,04,14,01,40,10.30
2020,04,14,01,41,10.30
2020,04,14,01,42,10.30
2020,04,14,01,43,10.30
2020,04,14,01,44,10.20
2020,04,14,01,45,10.30
2020,04,14,01,46,10.30
2020,04,14,01,47,10.30
2020,04,14,01,48,10.20
2020,04,14,01,49,10.20
2020,04,14,01,50,10.20
2020,04,14,01,51,10.10
2020,04,14,01,52,10.10
2020,04,14,01,53,10.10
2020,04,14,01,54,10.10
2020,04,14,01,55,10.20
2020,04,14,01,56,10.20
2020,04,14,01,57,10.20
2020,04,14,01,58,10.20
2020,04,14,01,59,10.10
2020,04,14,02,00,10.10
2020,04,14,02,01,10.10
2020,04,14,02,02,10.10
2020,04,14,02,03,10.10
2020,04,14,02,04,10.10
2020,04,14,02,05,10.10
2020,04,14,02,06,10.10
2020,04,14,02,07,10.10
2020,04,14,02,08,10.10
2020,04,14,02,09,10.10
2020,04,14,02,10,10.10
2020,04,14,02,11,10.10
2020,04,14,02,12,10.10
2020,04,14,02,13,10.10
2020,04,14,02,14,10.10
2020,04,14,02,15,10.10
2020,04,14,02,16,10.10
2020,04,14,02,17,10.10
2020,04,14,02,18,10.10
2020,04,14,02,19,10.10
2020,04,14,02,20,10.10
2020,04,14,02,21,10.10
2020,04,14,02,22,10.10
2020,04,14,02,23,10.10
2020,04,14,02,24,10.10
2020,04,14,02,25,10.10
2020,04,14,02,26,10.10
2020,04,14,02,27,10.10
2020,04,14,02,28,10.10
2020,04,14,02,29,10.10
2020,04,14,02,30,10.10
2020,04,14,02,31,10.10
2020,04,14,02,32,10.10
2020,04,14,02,33,10.10
2020,04,14,02,34,10.10
2020,04,14,02,35,10.10
2020,04,14,02,36,10.00
2020,04,14,02,37,10.00
2020,04,14,02,38,10.00
2020,04,14,02,39,10.00
2020,04,14,02,40,10.00
2020,04,14,02,41,10.00
2020,04,14,02,42,10.00
2020,04,14,02,43,10.00
2020,04,14,02,44,9.90
2020,04,14,02,45,9.90
2020,04,14,02,46,9.80
2020,04,14,02,47,9.80
2020,04,14,02,48,9.80
2020,04,14,02,49,9.80
2020,04,14,02,50,9.70
2020,04,14,02,51,9.70
2020,04,14,02,52,9.70
2020,04,14,02,53,9.70
2020,04,14,02,54,9.70
2020,04,14,02,55,9.70
2020,04,14,02,56,9.70
2020,04,14,02,57,9.70
2020,04,14,02,58,9.70
2020,04,14,02,59,9.70
2020,04,14,03,00,9.70
2020,04,14,03,01,9.70
2020,04,14,03,02,9.70
2020,04,14,03,03,9.60
2020,04,14,03,04,9.60
2020,04,14,03,05,9.60
2020,04,14,03,06,9.50
2020,04,14,03,07,9.50
2020,04,14,03,08,9.50
2020,04,14,03,09,9.40
2020,04,14,03,10,9.40
2020,04,14,03,11,9.40
2020,04,14,03,12,9.30
2020,04,14,03,13,9.30
2020,04,14,03,14,9.30
2020,04,14,03,15,9.20
2020,04,14,03,16,9.20
2020,04,14,03,17,9.20
2020,04,14,03,18,9.20
2020,04,14,03,19,9.10
2020,04,14,03,20,9.10
2020,04,14,03,21,9.10
2020,04,14,03,22,9.00
2020,04,14,03,23,8.90
2020,04,14,03,24,8.90
2020,04,14,03,25,8.90
2020,04,14,03,26,8.80
2020,04,14,03,27,8.80
2020,04,14,03,28,8.80
2020,04,14,03,29,8.70
2020,04,14,03,30,8.70
2020,04,14,03,31,8.70
2020,04,14,03,32,8.70
2020,04,14,03,33,8.80
2020,04,14,03,34,8.80
2020,04,14,03,35,8.80
2020,04,14,03,36,8.80
2020,04,14,03,37,8.80
2020,04,14,03,38,8.70
2020,04,14,03,39,8.60
2020,04,14,03,40,8.60
2020,04,14,03,41,8.60
2020,04,14,03,42,8.50
2020,04,14,03,43,8.50
2020,04,14,03,44,8.50
2020,04,14,03,45,8.50
2020,04,14,03,46,8.40
2020,04,14,03,47,8.40
2020,04,14,03,48,8.40
2020,04,14,03,49,8.40
2020,04,14,03,50,8.40
2020,04,14,03,51,8.30
2020,04,14,03,52,8.30
2020,04,14,03,53,8.30
2020,04,14,03,54,8.30
2020,04,14,03,55,8.20
2020,04,14,03,56,8.20
2020,04,14,03,57,8.20
2020,04,14,03,58,8.10
2020,04,14,03,59,8.10
2020,04,14,04,00,8.10
2020,04,14,04,01,8.20
2020,04,14,04,02,8.20
2020,04,14,04,03,8.20
2020,04,14,04,04,8.20
2020,04,14,04,05,8.20
2020,04,14,04,06,8.20
2020,04,14,04,07,8.20
2020,04,14,04,08,8.30
2020,04,14,04,09,8.30
2020,04,14,04,10,8.30
2020,04,14,04,11,8.30
2020,04,14,04,12,8.30
2020,04,14,04,13,8.30
2020,04,14,04,14,8.30
2020,04,14,04,15,8.40
2020,04,14,04,16,8.50
2020,04,14,04,17,8.60
2020,04,14,04,18,8.60
2020,04,14,04,19,8.60
2020,04,14,04,20,8.60
2020,04,14,04,21,8.60
2020,04,14,04,22,8.60
2020,04,14,04,23,8.60
2020,04,14,04,24,8.60
2020,04,14,04,25,8.60
2020,04,14,04,26,8.70
2020,04,14,04,27,8.70
2020,04,14,04,28,8.70
2020,04,14,04,29,8.70
2020,04,14,04,30,8.60
2020,04,14,04,31,8.60
2020,04,14,04,32,8.60
2020,04,14,04,33,8.60
2020,04,14,04,34,8.60
2020,04,14,04,35,8.60
2020,04,14,04,36,8.60
2020,04,14,04,37,8.60
2020,04,14,04,38,8.60
2020,04,14,04,39,8.60
2020,04,14,04,40,8.60
2020,04,14,04,41,8.60
2020,04,14,04,42,8.60
2020,04,14,04,43,8.50
2020,04,14,04,44,8.50
2020,04,14,04,45,8.40
2020,04,14,04,46,8.40
2020,04,14,04,47,8.30
2020,04,14,04,48,8.30
2020,04,14,04,49,8.30
2020,04,14,04,50,8.30
2020,04,14,04,51,8.30
2020,04,14,04,52,8.30
2020,04,14,04,53,8.20
2020,04,14,04,54,8.20
2020,04,14,04,55,8.20
2020,04,14,04,56,8.20
2020,04,14,04,57,8.10
2020,04,14,04,58,8.10
2020,04,14,04,59,8.10
2020,04,14,05,00,8.10
2020,04,14,05,01,8.00
2020,04,14,05,02,8.00
2020,04,14,05,03,8.00
2020,04,14,05,04,8.00
2020,04,14,05,05,8.00
2020,04,14,05,06,8.00
2020,04,14,05,07,8.10
2020,04,14,05,08,8.10
2020,04,14,05,09,8.10
2020,04,14,05,10,8.10
2020,04,14,05,11,8.10
2020,04,14,05,12,8.00
2020,04,14,05,13,8.10
2020,04,14,05,14,8.10
2020,04,14,05,15,8.10
2020,04,14,05,16,8.10
2020,04,14,05,17,8.10
2020,04,14,05,18,8.10
2020,04,14,05,19,8.10
2020,04,14,05,20,8.20
2020,04,14,05,21,8.20
2020,04,14,05,22,8.20
2020,04,14,05,23,8.20
2020,04,14,05,24,8.20
2020,04,14,05,25,8.20
2020,04,14,05,26,8.20
2020,04,14,05,27,8.20
2020,04,14,05,28,8.20
2020,04,14,05,29,8.20
2020,04,14,05,30,8.20
2020,04,14,05,31,8.20
2020,04,14,05,32,8.10
2020,04,14,05,33,8.10
2020,04,14,05,34,8.10
2020,04,14,05,35,8.10
2020,04,14,05,36,8.00
2020,04,14,05,37,8.00
2020,04,14,05,38,8.00
2020,04,14,05,39,7.90
2020,04,14,05,40,7.90
2020,04,14,05,41,7.90
2020,04,14,05,42,7.90
2020,04,14,05,43,7.90
2020,04,14,05,44,7.90
2020,04,14,05,45,7.90
2020,04,14,05,46,7.90
2020,04,14,05,47,7.90
2020,04,14,05,48,7.90
2020,04,14,05,49,7.90
2020,04,14,05,50,7.90
2020,04,14,05,51,7.90
2020,04,14,05,52,7.90
2020,04,14,05,53,7.90
2020,04,14,05,54,7.90
2020,04,14,05,55,7.90
2020,04,14,05,56,7.90
2020,04,14,05,57,7.90
2020,04,14,05,58,7.90
2020,04,14,05,59,7.90
2020,04,14,06,00,7.90
2020,04,14,06,01,7.90
2020,04,14,06,02,7.90
2020,04,14,06,03,7.90
2020,04,14,06,04,7.90
2020,04,14,06,05,7.90
2020,04,14,06,06,7.90
2020,04,14,06,07,7.90
2020,04,14,06,08,7.80
2020,04,14,06,09,7.80
2020,04,14,06,10,7.80
2020,04,14,06,11,7.80
2020,04,14,06,12,7.80
2020,04,14,06,13,7.80
2020,04,14,06,14,7.80
2020,04,14,06,15,7.80
2020,04,14,06,16,7.80
2020,04,14,06,17,7.90
2020,04,14,06,18,7.90
2020,04,14,06,19,7.90
2020,04,14,06,20,7.90
2020,04,14,06,21,7.90
2020,04,14,06,22,7.90
2020,04,14,06,23,7.90
2020,04,14,06,24,7.90
2020,04,14,06,25,7.90
2020,04,14,06,26,7.90
2020,04,14,06,27,7.90
2020,04,14,06,28,7.90
2020,04,14,06,29,7.90
2020,04,14,06,30,7.90
2020,04,14,06,31,7.80
2020,04,14,06,32,7.80
2020,04,14,06,33,7.80
2020,04,14,06,34,7.70
2020,04,14,06,35,7.60
2020,04,14,06,36,7.60
2020,04,14,06,37,7.60
2020,04,14,06,38,7.50
2020,04,14,06,39,7.50
2020,04,14,06,40,7.50
2020,04,14,06,41,7.50
2020,04,14,06,42,7.50
2020,04,14,06,43,7.50
2020,04,14,06,44,7.50
2020,04,14,06,45,7.50
2020,04,14,06,46,7.50
2020,04,14,06,47,7.50
2020,04,14,06,48,7.50
2020,04,14,06,49,7.50
2020,04,14,06,50,7.40
2020,04,14,06,51,7.40
2020,04,14,06,52,7.40
2020,04,14,06,53,7.40
2020,04,14,06,54,7.40
2020,04,14,06,55,7.30
2020,04,14,06,56,7.30
2020,04,14,06,57,7.30
2020,04,14,06,58,7.30
2020,04,14,06,59,7.30
2020,04,14,07,00,7.30
2020,04,14,07,01,7.30
2020,04,14,07,02,7.30
2020,04,14,07,03,7.30
2020,04,14,07,04,7.30
2020,04,14,07,05,7.30
2020,04,14,07,06,7.40
2020,04,14,07,07,7.40
2020,04,14,07,08,7.40
2020,04,14,07,09,7.40
2020,04,14,07,10,7.40
2020,04,14,07,11,7.50
2020,04,14,07,12,7.50
2020,04,14,07,13,7.60
2020,04,14,07,14,7.60
2020,04,14,07,15,7.60
2020,04,14,07,16,7.60
2020,04,14,07,17,7.70
2020,04,14,07,18,7.70
2020,04,14,07,19,7.70
2020,04,14,07,20,7.70
2020,04,14,07,21,7.80
2020,04,14,07,22,7.80
2020,04,14,07,23,7.80
2020,04,14,07,24,7.80
2020,04,14,07,25,7.80
2020,04,14,07,26,7.90
2020,04,14,07,27,7.90
2020,04,14,07,28,7.90
2020,04,14,07,29,7.90
2020,04,14,07,30,7.90
2020,04,14,07,31,7.90
2020,04,14,07,32,7.90
2020,04,14,07,33,7.90
2020,04,14,07,34,8.00
2020,04,14,07,35,8.00
2020,04,14,07,36,8.10
2020,04,14,07,37,8.10
2020,04,14,07,38,8.10
2020,04,14,07,39,8.20
2020,04,14,07,40,8.20
2020,04,14,07,41,8.30
2020,04,14,07,42,8.30
2020,04,14,07,43,8.30
2020,04,14,07,44,8.30
2020,04,14,07,45,8.40
2020,04,14,07,46,8.40
2020,04,14,07,47,8.50
2020,04,14,07,48,8.50
2020,04,14,07,49,8.50
2020,04,14,07,50,8.60
2020,04,14,07,51,8.60
2020,04,14,07,52,8.60
2020,04,14,07,53,8.60
2020,04,14,07,54,8.70
2020,04,14,07,55,8.70
2020,04,14,07,56,8.80
2020,04,14,07,57,8.80
2020,04,14,07,58,8.80
2020,04,14,07,59,8.80
2020,04,14,08,00,8.90
2020,04,14,08,01,8.90
2020,04,14,08,02,8.90
2020,04,14,08,03,9.00
2020,04,14,08,04,9.10
2020,04,14,08,05,9.10
2020,04,14,08,06,9.10
2020,04,14,08,07,9.20
2020,04,14,08,08,9.20
2020,04,14,08,09,9.30
2020,04,14,08,10,9.40
2020,04,14,08,11,9.40
2020,04,14,08,12,9.40
2020,04,14,08,13,9.50
2020,04,14,08,14,9.50
2020,04,14,08,15,9.60
2020,04,14,08,16,9.60
2020,04,14,08,17,9.70
2020,04,14,08,18,9.70
2020,04,14,08,19,9.80
2020,04,14,08,20,9.80
2020,04,14,08,21,9.80
2020,04,14,08,22,9.80
2020,04,14,08,23,9.90
2020,04,14,08,24,9.90
2020,04,14,08,25,9.90
2020,04,14,08,26,9.90
2020,04,14,08,27,10.00
2020,04,14,08,28,10.00
2020,04,14,08,29,10.10
2020,04,14,08,30,10.10
2020,04,14,08,31,10.10
2020,04,14,08,32,10.20
2020,04,14,08,33,10.20
2020,04,14,08,34,10.20
2020,04,14,08,35,10.30
2020,04,14,08,36,10.30
2020,04,14,08,37,10.30
2020,04,14,08,38,10.40
2020,04,14,08,39,10.40
2020,04,14,08,40,10.40
2020,04,14,08,41,10.50
2020,04,14,08,42,10.60
2020,04,14,08,43,10.70
2020,04,14,08,44,10.70
2020,04,14,08,45,10.90
2020,04,14,08,46,11.00
2020,04,14,08,47,11.10
2020,04,14,08,48,11.20
2020,04,14,08,49,11.20
2020,04,14,08,50,11.20
2020,04,14,08,51,11.20
2020,04,14,08,52,11.20
2020,04,14,08,53,11.20
2020,04,14,08,54,11.30
2020,04,14,08,55,11.40
2020,04,14,08,56,11.50
2020,04,14,08,57,11.60
2020,04,14,08,58,11.70
2020,04,14,08,59,11.80
2020,04,14,09,00,11.80
2020,04,14,09,01,11.80
2020,04,14,09,02,11.80
2020,04,14,09,03,11.80
2020,04,14,09,04,11.90
2020,04,14,09,05,11.90
2020,04,14,09,06,11.90
2020,04,14,09,07,12.00
2020,04,14,09,08,12.00
2020,04,14,09,09,12.00
2020,04,14,09,10,12.00
2020,04,14,09,11,12.00
2020,04,14,09,12,12.00
2020,04,14,09,13,11.90
2020,04,14,09,14,11.90
2020,04,14,09,15,11.90
2020,04,14,09,16,11.90
2020,04,14,09,17,11.90
2020,04,14,09,18,12.00
2020,04,14,09,19,12.00
2020,04,14,09,20,12.00
2020,04,14,09,21,12.10
2020,04,14,09,22,12.10
2020,04,14,09,23,12.10
2020,04,14,09,24,12.10
2020,04,14,09,25,12.10
2020,04,14,09,26,12.10
2020,04,14,09,27,12.10
2020,04,14,09,28,12.00
2020,04,14,09,29,12.00
2020,04,14,09,30,11.90
2020,04,14,09,31,11.90
2020,04,14,09,32,11.90
2020,04,14,09,33,11.80
2020,04,14,09,34,11.90
2020,04,14,09,35,11.90
2020,04,14,09,36,12.00
2020,04,14,09,37,12.10
2020,04,14,09,38,12.10
2020,04,14,09,39,12.20
2020,04,14,09,40,12.30
2020,04,14,09,41,12.30
2020,04,14,09,42,12.30
2020,04,14,09,43,12.40
2020,04,14,09,44,12.40
2020,04,14,09,45,12.40
2020,04,14,09,46,12.40
2020,04,14,09,47,12.40
2020,04,14,09,48,12.40
2020,04,14,09,49,12.40
2020,04,14,09,50,12.40
2020,04,14,09,51,12.40
2020,04,14,09,52,12.40
2020,04,14,09,53,12.30
2020,04,14,09,54,12.30
2020,04,14,09,55,12.30
2020,04,14,09,56,12.30
2020,04,14,09,57,12.20
2020,04,14,09,58,12.20
2020,04,14,09,59,12.10
2020,04,14,10,00,12.10
2020,04,14,10,01,12.20
2020,04,14,10,02,12.20
2020,04,14,10,03,12.40
2020,04,14,10,04,12.40
2020,04,14,10,05,12.40
2020,04,14,10,06,12.30
2020,04,14,10,07,12.20
2020,04,14,10,08,12.20
2020,04,14,10,09,12.20
2020,04,14,10,10,12.20
2020,04,14,10,11,12.20
2020,04,14,10,12,12.20
2020,04,14,10,13,12.30
2020,04,14,10,14,12.30
2020,04,14,10,15,12.30
2020,04,14,10,16,12.40
2020,04,14,10,17,12.50
2020,04,14,10,18,12.60
2020,04,14,10,19,12.70
2020,04,14,10,20,12.70
2020,04,14,10,21,12.70
2020,04,14,10,22,12.70
2020,04,14,10,23,12.50
2020,04,14,10,24,12.50
2020,04,14,10,25,12.40
2020,04,14,10,26,12.40
2020,04,14,10,27,12.40
2020,04,14,10,28,12.50
2020,04,14,10,29,12.50
2020,04,14,10,30,12.40
2020,04,14,10,31,12.40
2020,04,14,10,32,12.30
2020,04,14,10,33,12.20
2020,04,14,10,34,12.20
2020,04,14,10,35,12.20
2020,04,14,10,36,12.20
2020,04,14,10,37,12.30
2020,04,14,10,38,12.30
2020,04,14,10,39,12.40
2020,04,14,10,40,12.40
2020,04,14,10,41,12.40
2020,04,14,10,42,12.30
2020,04,14,10,43,12.30
2020,04,14,10,44,12.30
2020,04,14,10,45,12.40
2020,04,14,10,46,12.40
2020,04,14,10,47,12.50
2020,04,14,10,48,12.60
2020,04,14,10,49,12.70
2020,04,14,10,50,12.90
2020,04,14,10,51,12.90
2020,04,14,10,52,12.90
2020,04,14,10,53,12.90
2020,04,14,10,54,12.80
2020,04,14,10,55,12.80
2020,04,14,10,56,12.80
2020,04,14,10,57,12.90
2020,04,14,10,58,13.00
2020,04,14,10,59,13.10
2020,04,14,11,00,13.20
2020,04,14,11,01,13.20
2020,04,14,11,02,13.20
2020,04,14,11,03,13.30
2020,04,14,11,04,13.40
2020,04,14,11,05,13.50
2020,04,14,11,06,13.50
2020,04,14,11,07,13.50
2020,04,14,11,08,13.50
2020,04,14,11,09,13.50
2020,04,14,11,10,13.50
2020,04,14,11,11,13.50
2020,04,14,11,12,13.60
2020,04,14,11,13,13.60
2020,04,14,11,14,13.70
2020,04,14,11,15,13.80
2020,04,14,11,16,13.90
2020,04,14,11,17,14.00
2020,04,14,11,18,14.10
2020,04,14,11,19,14.10
2020,04,14,11,20,14.10
2020,04,14,11,21,14.00
2020,04,14,11,22,13.90
2020,04,14,11,23,14.00
2020,04,14,11,24,14.10
2020,04,14,11,25,14.10
2020,04,14,11,26,14.20
2020,04,14,11,27,14.10
2020,04,14,11,28,14.00
2020,04,14,11,29,14.00
2020,04,14,11,30,14.00
2020,04,14,11,31,13.90
2020,04,14,11,32,14.00
2020,04,14,11,33,14.00
2020,04,14,11,34,14.10
2020,04,14,11,35,14.20
2020,04,14,11,36,14.30
2020,04,14,11,37,14.30
2020,04,14,11,38,14.30
2020,04,14,11,39,14.10
2020,04,14,11,40,14.00
2020,04,14,11,41,13.90
2020,04,14,11,42,13.80
2020,04,14,11,43,13.80
2020,04,14,11,44,13.80
2020,04,14,11,45,13.80
2020,04,14,11,46,13.70
2020,04,14,11,47,13.70
2020,04,14,11,48,13.70
2020,04,14,11,49,13.80
2020,04,14,11,50,13.80
2020,04,14,11,51,14.00
2020,04,14,11,52,14.10
2020,04,14,11,53,14.10
2020,04,14,11,54,14.10
2020,04,14,11,55,14.10
2020,04,14,11,56,14.10
2020,04,14,11,57,14.10
2020,04,14,11,58,14.10
2020,04,14,11,59,14.10
2020,04,14,12,00,14.20
2020,04,14,12,01,14.20
2020,04,14,12,02,14.20
2020,04,14,12,03,14.20
2020,04,14,12,04,14.20
2020,04,14,12,05,14.30
2020,04,14,12,06,14.30
2020,04,14,12,07,14.30
2020,04,14,12,08,14.30
2020,04,14,12,09,14.40
2020,04,14,12,10,14.40
2020,04,14,12,11,14.40
2020,04,14,12,12,14.40
2020,04,14,12,13,14.40
2020,04,14,12,14,14.50
2020,04,14,12,15,14.60
2020,04,14,12,16,14.70
2020,04,14,12,17,14.80
2020,04,14,12,18,14.80
2020,04,14,12,19,14.90
2020,04,14,12,20,14.90
2020,04,14,12,21,14.90
2020,04,14,12,22,14.90
2020,04,14,12,23,14.80
2020,04,14,12,24,14.80
2020,04,14,12,25,14.80
2020,04,14,12,26,14.70
2020,04,14,12,27,14.60
2020,04,14,12,28,14.50
2020,04,14,12,29,14.50
2020,04,14,12,30,14.60
2020,04,14,12,31,14.50
2020,04,14,12,32,14.50
2020,04,14,12,33,14.50
2020,04,14,12,34,14.60
2020,04,14,12,35,14.50
2020,04,14,12,36,14.50
2020,04,14,12,37,14.40
2020,04,14,12,38,14.40
2020,04,14,12,39,14.40
2020,04,14,12,40,14.40
2020,04,14,12,41,14.30
2020,04,14,12,42,14.20
2020,04,14,12,43,14.10
2020,04,14,12,44,14.10
2020,04,14,12,45,14.10
2020,04,14,12,46,14.10
2020,04,14,12,47,14.10
2020,04,14,12,48,14.20
2020,04,14,12,49,14.20
2020,04,14,12,50,14.20
2020,04,14,12,51,14.20
2020,04,14,12,52,14.30
2020,04,14,12,53,14.30
2020,04,14,12,54,14.30
2020,04,14,12,55,14.30
2020,04,14,12,56,14.40
2020,04,14,12,57,14.30
2020,04,14,12,58,14.30
2020,04,14,12,59,14.40
2020,04,14,13,00,14.50
2020,04,14,13,01,14.60
2020,04,14,13,02,14.60
2020,04,14,13,03,14.70
2020,04,14,13,04,14.80
2020,04,14,13,05,14.90
2020,04,14,13,06,14.90
2020,04,14,13,07,15.00
2020,04,14,13,08,15.00
2020,04,14,13,09,15.00
2020,04,14,13,10,14.90
2020,04,14,13,11,14.80
2020,04,14,13,12,14.90
2020,04,14,13,13,14.90
2020,04,14,13,14,15.00
2020,04,14,13,15,15.10
2020,04,14,13,16,15.00
2020,04,14,13,17,15.00
2020,04,14,13,18,14.90
2020,04,14,13,19,14.90
2020,04,14,13,20,14.80
2020,04,14,13,21,14.70
2020,04,14,13,22,14.70
2020,04,14,13,23,14.60
2020,04,14,13,24,14.60
2020,04,14,13,25,14.60
2020,04,14,13,26,14.60
2020,04,14,13,27,14.70
2020,04,14,13,28,14.70
2020,04,14,13,29,14.70
2020,04,14,13,30,14.70
2020,04,14,13,31,14.70
2020,04,14,13,32,14.70
2020,04,14,13,33,14.70
2020,04,14,13,34,14.70
2020,04,14,13,35,14.80
2020,04,14,13,36,14.80
2020,04,14,13,37,14.80
2020,04,14,13,38,14.90
2020,04,14,13,39,14.90
2020,04,14,13,40,14.90
2020,04,14,13,41,14.90
2020,04,14,13,42,14.80
2020,04,14,13,43,14.80
2020,04,14,13,44,14.70
2020,04,14,13,45,14.70
2020,04,14,13,46,14.80
2020,04,14,13,47,14.80
2020,04,14,13,48,14.80
2020,04,14,13,49,14.90
2020,04,14,13,50,14.90
2020,04,14,13,51,14.90
2020,04,14,13,52,14.80
2020,04,14,13,53,14.80
2020,04,14,13,54,14.80
2020,04,14,13,55,14.90
2020,04,14,13,56,15.00
2020,04,14,13,57,15.10
2020,04,14,13,58,15.10
2020,04,14,13,59,15.10
2020,04,14,14,00,15.10
2020,04,14,14,01,15.20
2020,04,14,14,02,15.10
2020,04,14,14,03,15.00
2020,04,14,14,04,14.90
2020,04,14,14,05,14.80
2020,04,14,14,06,14.60
2020,04,14,14,07,14.50
2020,04,14,14,08,14.40
2020,04,14,14,09,14.50
2020,04,14,14,10,14.60
2020,04,14,14,11,14.60
2020,04,14,14,12,14.60
2020,04,14,14,13,14.60
2020,04,14,14,14,14.50
2020,04,14,14,15,14.40
2020,04,14,14,16,14.40
2020,04,14,14,17,14.40
2020,04,14,14,18,14.40
2020,04,14,14,19,14.40
2020,04,14,14,20,14.50
2020,04,14,14,21,14.50
2020,04,14,14,22,14.60
2020,04,14,14,23,14.50
2020,04,14,14,24,14.40
2020,04,14,14,25,14.30
2020,04,14,14,26,14.30
2020,04,14,14,27,14.30
2020,04,14,14,28,14.30
2020,04,14,14,29,14.40
2020,04,14,14,30,14.50
2020,04,14,14,31,14.50
2020,04,14,14,32,14.50
2020,04,14,14,33,14.50
2020,04,14,14,34,14.40
2020,04,14,14,35,14.30
2020,04,14,14,36,14.30
2020,04,14,14,37,14.30
2020,04,14,14,38,14.40
2020,04,14,14,39,14.50
2020,04,14,14,40,14.40
2020,04,14,14,41,14.40
2020,04,14,14,42,14.40
2020,04,14,14,43,14.30
2020,04,14,14,44,14.30
2020,04,14,14,45,14.30
2020,04,14,14,46,14.30
2020,04,14,14,47,14.30
2020,04,14,14,48,14.30
2020,04,14,14,49,14.30
2020,04,14,14,50,14.30
2020,04,14,14,51,14.20
2020,04,14,14,52,14.20
2020,04,14,14,53,14.20
2020,04,14,14,54,14.10
2020,04,14,14,55,14.10
2020,04,14,14,56,14.10
2020,04,14,14,57,14.20
2020,04,14,14,58,14.20
2020,04,14,14,59,14.20
2020,04,14,15,00,14.20
2020,04,14,15,01,14.20
2020,04,14,15,02,14.10
2020,04,14,15,03,14.10
2020,04,14,15,04,14.10
2020,04,14,15,05,14.10
2020,04,14,15,06,14.20
2020,04,14,15,07,14.30
2020,04,14,15,08,14.20
2020,04,14,15,09,14.30
2020,04,14,15,10,14.40
2020,04,14,15,11,14.50
2020,04,14,15,12,14.60
2020,04,14,15,13,14.60
2020,04,14,15,14,14.50
2020,04,14,15,15,14.40
2020,04,14,15,16,14.30
2020,04,14,15,17,14.30
2020,04,14,15,18,14.30
2020,04,14,15,19,14.40
2020,04,14,15,20,14.50
2020,04,14,15,21,14.60
2020,04,14,15,22,14.70
2020,04,14,15,23,14.80
2020,04,14,15,24,14.80
2020,04,14,15,25,14.80
2020,04,14,15,26,14.70
2020,04,14,15,27,14.70
2020,04,14,15,28,14.80
2020,04,14,15,29,14.90
2020,04,14,15,30,14.80
2020,04,14,15,31,14.80
2020,04,14,15,32,14.80
2020,04,14,15,33,14.80
2020,04,14,15,34,14.80
2020,04,14,15,35,14.80
2020,04,14,15,36,14.70
2020,04,14,15,37,14.70
2020,04,14,15,38,14.70
2020,04,14,15,39,14.60
2020,04,14,15,40,14.70
2020,04,14,15,41,14.70
2020,04,14,15,42,14.60
2020,04,14,15,43,14.60
2020,04,14,15,44,14.60
2020,04,14,15,45,14.60
2020,04,14,15,46,14.60
2020,04,14,15,47,14.60
2020,04,14,15,48,14.60
2020,04,14,15,49,14.70
2020,04,14,15,50,14.70
2020,04,14,15,51,14.80
2020,04,14,15,52,14.90
2020,04,14,15,53,14.90
2020,04,14,15,54,14.90
2020,04,14,15,55,14.80
2020,04,14,15,56,14.90
2020,04,14,15,57,14.90
2020,04,14,15,58,14.90
2020,04,14,15,59,14.90
2020,04,14,16,00,15.00
2020,04,14,16,01,15.10
2020,04,14,16,02,15.20
2020,04,14,16,03,15.30
2020,04,14,16,04,15.40
2020,04,14,16,05,15.40
2020,04,14,16,06,15.40
2020,04,14,16,07,15.50
2020,04,14,16,08,15.60
2020,04,14,16,09,15.70
2020,04,14,16,10,15.80
2020,04,14,16,11,15.80
2020,04,14,16,12,15.70
2020,04,14,16,13,15.70
2020,04,14,16,14,15.70
2020,04,14,16,15,15.70
2020,04,14,16,16,15.70
2020,04,14,16,17,15.60
2020,04,14,16,18,15.70
2020,04,14,16,19,15.70
2020,04,14,16,20,15.80
2020,04,14,16,21,15.90
2020,04,14,16,22,15.90
2020,04,14,16,23,16.00
2020,04,14,16,24,16.00
2020,04,14,16,25,16.00
2020,04,14,16,26,16.10
2020,04,14,16,27,16.10
2020,04,14,16,28,16.20
2020,04,14,16,29,16.20
2020,04,14,16,30,16.20
2020,04,14,16,31,16.20
2020,04,14,16,32,16.20
2020,04,14,16,33,16.20
2020,04,14,16,34,16.30
2020,04,14,16,35,16.30
2020,04,14,16,36,16.20
2020,04,14,16,37,16.20
2020,04,14,16,38,16.20
2020,04,14,16,39,16.20
2020,04,14,16,40,16.20
2020,04,14,16,41,16.30
2020,04,14,16,42,16.40
2020,04,14,16,43,16.40
2020,04,14,16,44,16.40
2020,04,14,16,45,16.50
2020,04,14,16,46,16.50
2020,04,14,16,47,16.60
2020,04,14,16,48,16.70
2020,04,14,16,49,16.70
2020,04,14,16,50,16.80
2020,04,14,16,51,16.80
2020,04,14,16,52,16.90
2020,04,14,16,53,17.00
2020,04,14,16,54,17.00
2020,04,14,16,55,17.10
2020,04,14,16,56,17.20
2020,04,14,16,57,17.30
2020,04,14,16,58,17.40
2020,04,14,16,59,17.50
2020,04,14,17,00,17.60
2020,04,14,17,01,17.80
2020,04,14,17,02,17.90
2020,04,14,17,03,17.90
2020,04,14,17,04,18.00
2020,04,14,17,05,18.10
2020,04,14,17,06,18.10
2020,04,14,17,07,18.20
2020,04,14,17,08,18.20
2020,04,14,17,09,18.00
2020,04,14,17,10,17.70
2020,04,14,17,11,17.30
2020,04,14,17,12,16.90
2020,04,14,17,13,16.60
2020,04,14,17,14,16.30
2020,04,14,17,15,16.10
2020,04,14,17,16,16.00
2020,04,14,17,17,15.90
2020,04,14,17,18,15.90
2020,04,14,17,19,15.90
2020,04,14,17,20,15.90
2020,04,14,17,21,15.90
2020,04,14,17,22,15.90
2020,04,14,17,23,15.90
2020,04,14,17,24,16.00
2020,04,14,17,25,16.00
2020,04,14,17,26,16.10
2020,04,14,17,27,16.10
2020,04,14,17,28,16.20
2020,04,14,17,29,16.20
2020,04,14,17,30,16.30
2020,04,14,17,31,16.30
2020,04,14,17,32,16.30
2020,04,14,17,33,16.30
2020,04,14,17,34,16.20